map of ROK home
Great Circle Mapper logo
ROK - Airport
Location
City:  Rockhampton, Queensland, Australia
ICAO / IATA:YBRK / ROK

Details
Type:Airport (Aerodrome, Airfield)
Use:Public/Civil
Latitude:23°22'55"S (-23.381943)
Longitude:150°28'31"E (150.475278)
Datum:WGS 1984
Elevation:34 ft (10 m)
Variation:9.23°E (WMM2015 magnetic declination)
-0.01° annual change
Runways:2
Longest:8622 × 148 ft (2628 × 45 m), paved

Time
Time Zone:UTC+10
Local Time:

Weather
METAR:YBRK 021000Z 01009KT CAVOK 22/18 Q1015
TAF:YBRK 020516Z 0206/0306 02012KT 9999 FEW040
FM021000 36006KT 9999 SCT025
FM021800 34006KT 9999 BKN020
FM022300 32012KT 9999 SCT035
FM030400 27014KT CAVOK
RMK

Related Locations
Nearby:
Farthest:NTO: 11922 mi / 19187 km
Ponta do Sol [Agostinho Neto], Ribeira Grande, Santo Antão, CV

Find:

   beyond  
but within

Other Information
Maps:
NOTAMs:
Links:
Sources:

  
flag of Australia
flag of Queensland
  

Sectional Chart

Flight Planning
at skyvector.com

Satellite Image

Google Maps Satellite view

 

Copyright © 2004-2015 Karl L. Swartz. All rights reserved.
The Great Circle Mapper name and logo are trademarks of the Great Circle Mapper.
All other trademarks mentioned herein belong to their respective owners.
Please see credits for attibutions and further copyright information.

  Follow gcmap on Facebook Follow gcmap on Twitter Follow gcmap on Google+

hCard Microformat

Geo Microformat